Location: Newark
(37.3333°N, 6.0167°W)
Time: 09:33:11
(UTC+00:00)

Hubble Space Telescope - Visible Passes

Search period start: 20 November 2019 00:00
Search period end: 30 November 2019 00:00
Orbit: 536 x 540 km, 28.5° (Epoch: 19 November)

Date Brightness Start Highest point End Pass type
(mag) Time Alt. Az. Time Alt. Az. Time Alt. Az.
20 Nov 3.1 17:52:50 10° SSW 17:54:58 14° SSE 17:57:07 10° SE visible
20 Nov 3.0 19:32:16 10° SW 19:34:03 19° SSW 19:34:03 19° SSW visible
21 Nov 3.0 17:41:44 10° SSW 17:44:16 16° SSE 17:46:49 10° SE visible
21 Nov 2.7 19:21:33 10° SW 19:24:04 22° SSW 19:24:04 22° SSW visible
22 Nov 2.5 19:10:52 10° SW 19:14:06 24° S 19:14:06 24° S visible
23 Nov 2.4 19:00:13 10° WSW 19:03:31 23° S 19:04:09 22° SSE visible
24 Nov 2.6 18:49:36 10° WSW 18:52:51 22° S 18:54:15 19° SSE visible
25 Nov 2.8 18:39:01 10° WSW 18:42:10 21° S 18:44:25 14° SSE visible
26 Nov 3.0 18:28:29 10° WSW 18:31:29 19° S 18:34:29 10° SE visible
27 Nov 3.2 18:18:00 10° SW 18:20:47 18° SSW 18:23:35 10° SSE visible
28 Nov 3.4 18:07:36 10° SW 18:10:05 16° SSW 18:12:34 10° SSE visible
29 Nov 3.5 17:57:19 10° SW 17:59:23 13° SSW 18:01:26 10° SSE visible
